Regional Weather Roundup
Issued by NWS

Home | Current Version | Previous Version | Graphics & Text | Print | Product List | Glossary On
Versions: 1 2 3 4 5 6 7 8 9 10 11 12 13 14 15 16 17 18 19 20 21 22 23 24 25 26 27 28 29 30 31 32 33 34 35 36 37 38 39 40 41 42 43 44 45 46 47 48 49 50
000
ASUS43 KMPX 151810
RWRMN
WEATHER ROUNDUP FOR MINNESOTA
NATIONAL WEATHER SERVICE TWIN CITIES/CHANHASSEN MN
100 PM CDT MON SEP 15 2014


NOTE: "FAIR" INDICATES FEW OR NO CLOUDS BELOW 12,000 FEET WITH NO
SIGNIFICANT WEATHER AND/OR OBSTRUCTIONS TO VISIBILITY. N/A MEANS
CURRENT SKY AND/OR WEATHER CONDITIONS ARE NOT AVAILABLE.

MNZ060>063-068>070-151900-
   Twin Cities Metro

CITY           SKY/WX    TMP DP  RH WIND       PRES   REMARKS
TWIN CITIES    PTSUNNY   57  41  55 NW7       30.21S
6HR MIN TEMP:  50; 6HR MAX TEMP:  58; 6HR PCP:  0.02;

ST PAUL        CLOUDY    59  43  55 NW10G17   30.22S
CRYSTAL        CLOUDY    60  40  47 N7        30.21R
BLAINE         CLOUDY    61  43  51 NW9       30.21S
LAKEVILLE      CLOUDY    55  43  62 N8        30.21S
EDEN PRAIRIE   CLOUDY    57  43  59 CALM      30.21S
6HR MIN TEMP:  50; 6HR MAX TEMP:  60; 6HR PCP:  0.01;

SOUTH ST PAUL  CLOUDY    58  40  50 NW5       30.21R
LAKE ELMO      PTSUNNY   59  43  55 N6        30.22R
$$
MNZ001>005-007-008-013>017-022>024-027-028-151900-
   Northwest Minnesota

CITY           SKY/WX    TMP DP  RH WIND       PRES   REMARKS
BEMIDJI        CLOUDY    56  32  40 NW14      30.21S
HALLOCK        SUNNY     63  30  29 NW10G18   30.16F
ROSEAU         SUNNY     61  39  44 SW13      30.16F
WARROAD        SUNNY     59  37  44 SW9G17    30.16S
THIEF RVR FALL SUNNY     57  37  47 W12       30.20F
CROOKSTON      MOSUNNY   61  39  44 W15       30.21F
FOSSTON        MOSUNNY   59  34  38 W8G17     30.22F
DETROIT LAKES  SUNNY     57  32  38 NW15      30.25S
MOORHEAD       SUNNY     61  28  29 NW10      30.25F
PARK RAPIDS    MOSUNNY   57  29  34 N10       30.22F
MAHNOMEN       FAIR      58  32  38 NW7       30.23S
$$
MNZ006-009>011-018-025>026-151900-
   North Central Minnesota

CITY           SKY/WX    TMP DP  RH WIND       PRES   REMARKS
BAUDETTE       MOSUNNY   59  35  40 NW7G17    30.16F
FLAG ISLAND    SUNNY     57  30  35 W15G22    30.11S
INTL FALLS     PTSUNNY   57  39  51 W13       30.15F
6HR MIN TEMP:  37; 6HR MAX TEMP:  58;

WASKISH        SUNNY     57  45  62 SW5       30.19F
BIG FORK       MOSUNNY   55  36  47 NW3       30.19F
LONGVILLE      PTSUNNY   55  32  41 W8        30.21F
GRAND RAPIDS   PTSUNNY   54  32  43 NW12      30.20S
CRANE LAKE     SUNNY     54  34  47 CALM      30.17S
ORR            SUNNY     55  34  44 W5        30.15S
COOK           MOSUNNY   55  36  47 NW9       30.18S
WALKER         MOCLDY    56  32  39 W10       30.22S
$$
MNZ012-019>021-037-151900-
   Northeast Minnesota

CITY           SKY/WX    TMP DP  RH WIND       PRES   REMARKS
DULUTH         MOSUNNY   55  31  39 NW17G23   30.17S
6HR MIN TEMP:  42; 6HR MAX TEMP:  56;

ELY            MOSUNNY   52  36  54 NW10G18   30.15S
HIBBING        PTSUNNY   53  34  48 NW14      30.19S
EVELETH        MOSUNNY   52  32  46 NW9       30.18F
DULUTH HARBOR  CLOUDY    55  36  47 NW10      30.19S
TWO HARBORS    PTSUNNY   54  36  50 NW7       30.15S
SILVER BAY     SUNNY     54  43  66 NW8       30.13S
GRAND MARAIS     N/A     58  38  47 N7        30.10S
G MARAIS ARPRT PTSUNNY   50  37  62 NW8       30.11S
$$
MNZ029>031-032-039>041-046>048-054>057-064-151900-
   West Central Minnesota

CITY           SKY/WX    TMP DP  RH WIND       PRES   REMARKS
FERGUS FALLS   SUNNY     57  27  30 NW7       30.25F
WHEATON        SUNNY     57  32  38 NW6G12    30.28S
MORRIS         MOSUNNY   61  34  36 NW12      30.24S
ALEXANDRIA     CLOUDY    56  38  50 N12       30.25F
ELBOW LAKE     FAIR      57  35  42 N10       30.25S
WADENA         MOSUNNY   55  36  47 N10G17    30.23S
GLENWOOD       MOSUNNY   57  36  44 NW6       30.24F
APPLETON       MOSUNNY   61  36  39 NW9       30.25S
BENSON         PTSUNNY   61  37  41 N9        30.25S
ORTONVILLE     SUNNY     59  32  36 NW8       30.26S
MADISON        PTSUNNY   61  39  44 NW10      30.27R
WILLMAR        FAIR      59  34  38 N10       30.26S
$$
MNZ033>034-036-042>043-049>051-058-059-151900-
   Central Minnesota

CITY           SKY/WX    TMP DP  RH WIND       PRES   REMARKS
ST CLOUD       PTSUNNY   59  34  39 NW12      30.23S
6HR MIN TEMP:  48; 6HR MAX TEMP:  62;

SAUK CENTRE    CLOUDY    56  35  43 NW5       30.24S
PAYNESVILLE    CLOUDY    54  35  48 W13       30.24S
AITKIN         CLOUDY    59  36  41 NW8       30.20S
PINE RIVER     MOSUNNY   55  34  44 NW9       30.25F
BRAINERD       PTSUNNY   54  33  45 NW12G22   30.23S
STAPLES        MOSUNNY   55  34  44 NW9       30.23S
LONG PRAIRIE   PTSUNNY   55  36  47 NW5       30.24S
LITTLE FALLS   PTSUNNY   57  32  38 N8        30.23S
LITCHFIELD     PTSUNNY   59  37  44 NW8       30.24S
BUFFALO        CLOUDY    58  37  45 NW8       30.24R
MAPLE LAKE     PTSUNNY   60  40  46 N7        30.24S
$$
MNZ037-044-045-052-053-151900-
   East Central Minnesota

CITY           SKY/WX    TMP DP  RH WIND       PRES   REMARKS
PRINCETON      PTSUNNY   61  36  39 CALM      30.22S
MORA           PTSUNNY   55  34  44 NW12G21   30.23S
CAMBRIDGE      CLOUDY    61  41  48 NW9       30.20S
RUSH CITY      CLOUDY    56  37  49 NW6       30.21S
MOOSE LAKE     PTSUNNY   54  34  47 NW8G18    30.18S
HINCKLEY       MOCLDY    57  36  44 NW9       30.20F
CLOQUET        PTSUNNY   54  32  43 NW12G17   30.19S
MCGREGOR       PTSUNNY   55  34  44 NW13      30.21S
$$
MNZ071>073-080-081-089-090-097-098-151900-
   Southwest Minnesota

CITY           SKY/WX    TMP DP  RH WIND       PRES   REMARKS
MONTEVIDEO     CLOUDY    61  45  55 N7        30.26S
GRANITE FALLS  PTSUNNY   59  41  52 W9        30.27S
CANBY          MOSUNNY   58  37  47 N7        30.28S
MARSHALL       CLOUDY    57  39  51 N10       30.25S
REDWOOD FALLS  CLOUDY    60  41  49 N6        30.25R
OLIVIA         PTSUNNY   57  37  47 N8        30.24S
PIPESTONE      MOSUNNY   57  36  44 N13       30.26S
WINDOM         CLOUDY    57  41  54 N14G25    30.24S
WORTHINGTON    PTSUNNY   55  37  50 N13       30.26R
JACKSON        MOSUNNY   59  37  44 N10G20    30.24S
TRACY          PTSUNNY   60  42  51 N9        30.26S
SLAYTON        PTSUNNY   56  39  53 N8        30.26S
$$
MNZ065>067-074>077-082>085-091>093-151900-
   South Central Minnesota

CITY           SKY/WX    TMP DP  RH WIND       PRES   REMARKS
MANKATO        CLOUDY    57  39  51 N10       30.22S
NEW ULM        PTSUNNY   57  39  51 N10       30.24R
ST JAMES       CLOUDY    59  41  51 NW10G16   30.25R
FAIRMONT       PTSUNNY   61  37  41 N13G20    30.23S
GLENCOE        CLOUDY    58  39  48 NW8       30.22S
FARIBAULT      PTSUNNY   61  43  51 W7        30.22S
OWATONNA       PTSUNNY   55  45  67 NW9       30.22R
WASECA         PTSUNNY   55  41  58 NW9       30.23S
ALBERT LEA     CLOUDY    55  45  67 N10       30.21S
$$
MNZ078>079-086>088-094>096-151900-
   Southeast Minnesota

CITY           SKY/WX    TMP DP  RH WIND       PRES   REMARKS
ROCHESTER      CLOUDY    55  44  66 N12       30.21R
6HR MIN TEMP:  49; 6HR MAX TEMP:  58; 6HR PCP:  0.26;

RED WING       CLOUDY    57  45  62 N7        30.19S
STANTON        CLOUDY    58  45  62 NW9       30.20S
DODGE CENTER   PTSUNNY   55  46  71 N10       30.21R
WINONA         PTSUNNY   55  45  67 N6        30.19S
AUSTIN         PTSUNNY   55  46  71 NW5       30.20S
PRESTON        PTSUNNY   54  48  78 N9        30.20R
$$
ABBREVIATIONS USED IN REMARKS
   TC - TEMPERATURES IN CELSIUS
  WCI - WIND CHILL INDEX
   HX - HEAT INDEX
  VSB - VISIBILITY
$$



USA.gov is the U.S. government's official web portal to all federal, state and local government web resources and services.